Time,TemperatureF,DewpointF,PressureIn,WindDirection,WindDirectionDegrees,WindSpeedMPH,WindSpeedGustMPH,Humidity,HourlyPrecipIn,Conditions,Clouds,dailyrainin,SoftwareType,DateUTC
2013-03-09 00:03:00,49.0,-99.9,30.24,North,5,3.0,4.0,-999,-99.99,,,-99.99,,2013-03-09 05:03:00,
2013-03-09 00:12:00,49.0,-99.9,30.24,North,3,3.0,6.0,-999,-99.99,,,-99.99,,2013-03-09 05:12:00,
2013-03-09 00:22:00,49.0,-99.9,30.24,North,4,3.0,6.0,-999,-99.99,,,-99.99,,2013-03-09 05:22:00,
2013-03-09 00:32:00,49.0,-99.9,30.23,NNE,12,3.0,4.0,-999,-99.99,,,-99.99,,2013-03-09 05:32:00,
2013-03-09 00:43:00,49.0,-99.9,30.23,North,4,5.0,7.0,-999,-99.99,,,-99.99,,2013-03-09 05:43:00,
2013-03-09 00:53:00,49.0,-99.9,30.23,North,359,4.0,6.0,-999,-99.99,,,-99.99,,2013-03-09 05:53:00,
2013-03-09 01:02:00,49.0,-99.9,30.23,North,5,4.0,7.0,-999,-99.99,,,-99.99,,2013-03-09 06:02:00,
2013-03-09 01:11:00,49.0,-99.9,30.23,North,2,4.0,6.0,-999,-99.99,,,-99.99,,2013-03-09 06:11:00,
2013-03-09 01:22:00,48.0,-99.9,30.23,North,355,5.0,6.0,-999,-99.99,,,-99.99,,2013-03-09 06:22:00,
2013-03-09 01:32:00,48.0,-99.9,30.24,North,351,6.0,8.0,-999,-99.99,,,-99.99,,2013-03-09 06:32:00,
2013-03-09 01:42:00,48.0,-99.9,30.24,North,356,5.0,6.0,-999,-99.99,,,-99.99,,2013-03-09 06:42:00,
2013-03-09 01:52:00,48.0,-99.9,30.24,North,357,4.0,6.0,-999,-99.99,,,-99.99,,2013-03-09 06:52:00,
2013-03-09 02:01:00,48.0,-99.9,30.24,North,360,5.0,7.0,-999,-99.99,,,-99.99,,2013-03-09 07:01:00,
2013-03-09 02:11:00,47.0,-99.9,30.23,North,358,5.0,7.0,-999,-99.99,,,-99.99,,2013-03-09 07:11:00,
2013-03-09 02:22:00,47.0,-99.9,30.23,North,355,6.0,9.0,-999,-99.99,,,-99.99,,2013-03-09 07:22:00,
2013-03-09 02:32:00,47.0,-99.9,30.23,North,359,5.0,8.0,-999,-99.99,,,-99.99,,2013-03-09 07:32:00,
2013-03-09 02:42:00,47.0,-99.9,30.23,North,357,6.0,9.0,-999,-99.99,,,-99.99,,2013-03-09 07:42:00,
2013-03-09 02:52:00,47.0,-99.9,30.23,North,358,5.0,9.0,-999,-99.99,,,-99.99,,2013-03-09 07:52:00,
2013-03-09 03:01:00,47.0,-99.9,30.23,North,359,5.0,9.0,-999,-99.99,,,-99.99,,2013-03-09 08:01:00,
2013-03-09 03:11:00,47.0,-99.9,30.23,North,360,7.0,11.0,-999,-99.99,,,-99.99,,2013-03-09 08:11:00,
2013-03-09 03:22:00,47.0,-99.9,30.23,North,4,7.0,12.0,-999,-99.99,,,-99.99,,2013-03-09 08:22:00,
2013-03-09 03:32:00,46.0,-99.9,30.23,North,351,7.0,10.0,-999,-99.99,,,-99.99,,2013-03-09 08:32:00,
2013-03-09 03:42:00,46.0,-99.9,30.23,NNW,346,9.0,11.0,-999,-99.99,,,-99.99,,2013-03-09 08:42:00,
2013-03-09 03:52:00,46.0,-99.9,30.23,North,350,9.0,12.0,-999,-99.99,,,-99.99,,2013-03-09 08:52:00,
2013-03-09 04:02:00,46.0,-99.9,30.23,North,358,6.0,12.0,-999,-99.99,,,-99.99,,2013-03-09 09:02:00,
2013-03-09 04:12:00,46.0,-99.9,30.23,North,358,6.0,11.0,-999,-99.99,,,-99.99,,2013-03-09 09:12:00,
2013-03-09 04:21:00,46.0,-99.9,30.23,North,1,6.0,9.0,-999,-99.99,,,-99.99,,2013-03-09 09:21:00,
2013-03-09 04:32:00,46.0,-99.9,30.23,North,5,11.0,15.0,-999,-99.99,,,-99.99,,2013-03-09 09:32:00,
2013-03-09 04:42:00,46.0,-99.9,30.23,NNE,13,14.0,16.0,-999,-99.99,,,-99.99,,2013-03-09 09:42:00,
2013-03-09 04:52:00,46.0,-99.9,30.23,NNE,14,13.0,16.0,-999,-99.99,,,-99.99,,2013-03-09 09:52:00,
2013-03-09 05:01:00,45.0,-99.9,30.23,NNE,17,13.0,16.0,-999,-99.99,,,-99.99,,2013-03-09 10:01:00,
2013-03-09 05:11:00,45.0,-99.9,30.24,NNE,20,14.0,16.0,-999,-99.99,,,-99.99,,2013-03-09 10:11:00,
2013-03-09 05:22:00,45.0,-99.9,30.24,NNE,23,12.0,16.0,-999,-99.99,,,-99.99,,2013-03-09 10:22:00,
2013-03-09 05:32:00,45.0,-99.9,30.24,NNE,26,12.0,16.0,-999,-99.99,,,-99.99,,2013-03-09 10:32:00,
2013-03-09 05:42:00,44.0,-99.9,30.24,NNE,25,12.0,14.0,-999,-99.99,,,-99.99,,2013-03-09 10:42:00,
2013-03-09 05:52:00,44.0,-99.9,30.25,NNE,23,11.0,14.0,-999,-99.99,,,-99.99,,2013-03-09 10:52:00,
2013-03-09 06:01:00,44.0,-99.9,30.25,NNE,22,11.0,14.0,-999,-99.99,,,-99.99,,2013-03-09 11:01:00,
2013-03-09 06:11:00,44.0,-99.9,30.25,NNE,20,11.0,14.0,-999,-99.99,,,-99.99,,2013-03-09 11:11:00,
2013-03-09 06:22:00,45.0,-99.9,30.25,NNE,18,10.0,15.0,-999,-99.99,,,-99.99,,2013-03-09 11:22:00,
2013-03-09 06:32:00,44.0,-99.9,30.25,NNE,18,11.0,14.0,-999,-99.99,,,-99.99,,2013-03-09 11:32:00,
2013-03-09 06:42:00,44.0,-99.9,30.25,NNE,17,10.0,13.0,-999,-99.99,,,-99.99,,2013-03-09 11:42:00,
2013-03-09 06:52:00,44.0,-99.9,30.26,NNE,21,9.0,13.0,-999,-99.99,,,-99.99,,2013-03-09 11:52:00,
2013-03-09 07:02:00,44.0,-99.9,30.25,NNE,16,12.0,14.0,-999,-99.99,,,-99.99,,2013-03-09 12:02:00,
2013-03-09 07:12:00,44.0,-99.9,30.25,NNE,23,12.0,15.0,-999,-99.99,,,-99.99,,2013-03-09 12:12:00,
2013-03-09 07:22:00,44.0,-99.9,30.25,NNE,21,9.0,14.0,-999,-99.99,,,-99.99,,2013-03-09 12:22:00,
2013-03-09 07:32:00,43.0,-99.9,30.26,NNE,21,11.0,13.0,-999,-99.99,,,-99.99,,2013-03-09 12:32:00,
2013-03-09 07:42:00,44.0,-99.9,30.26,NNE,19,11.0,15.0,-999,-99.99,,,-99.99,,2013-03-09 12:42:00,
2013-03-09 07:52:00,44.0,-99.9,30.26,NNE,22,10.0,15.0,-999,-99.99,,,-99.99,,2013-03-09 12:52:00,
2013-03-09 08:02:00,44.0,-99.9,30.27,North,9,9.0,13.0,-999,-99.99,,,-99.99,,2013-03-09 13:02:00,
2013-03-09 08:11:00,44.0,-99.9,30.28,North,2,7.0,12.0,-999,-99.99,,,-99.99,,2013-03-09 13:11:00,
2013-03-09 08:22:00,44.0,-99.9,30.28,North,10,11.0,15.0,-999,-99.99,,,-99.99,,2013-03-09 13:22:00,
2013-03-09 08:32:00,44.0,-99.9,30.29,NNE,13,10.0,14.0,-999,-99.99,,,-99.99,,2013-03-09 13:32:00,
2013-03-09 08:42:00,45.0,-99.9,30.29,NNE,21,11.0,16.0,-999,-99.99,,,-99.99,,2013-03-09 13:42:00,
2013-03-09 08:52:00,45.0,-99.9,30.29,NNE,20,14.0,19.0,-999,-99.99,,,-99.99,,2013-03-09 13:52:00,
2013-03-09 09:01:00,46.0,-99.9,30.29,NNE,21,13.0,17.0,-999,-99.99,,,-99.99,,2013-03-09 14:01:00,
2013-03-09 09:11:00,46.0,-99.9,30.29,NNE,24,13.0,19.0,-999,-99.99,,,-99.99,,2013-03-09 14:11:00,
2013-03-09 09:22:00,46.0,-99.9,30.29,NNE,27,16.0,17.0,-999,-99.99,,,-99.99,,2013-03-09 14:22:00,
2013-03-09 09:32:00,47.0,-99.9,30.29,NNE,23,12.0,15.0,-999,-99.99,,,-99.99,,2013-03-09 14:32:00,
2013-03-09 09:42:00,47.0,-99.9,30.29,NNE,25,11.0,14.0,-999,-99.99,,,-99.99,,2013-03-09 14:42:00,
2013-03-09 09:52:00,47.0,-99.9,30.29,NNE,25,10.0,13.0,-999,-99.99,,,-99.99,,2013-03-09 14:52:00,
2013-03-09 10:02:00,48.0,-99.9,30.29,NNE,26,9.0,14.0,-999,-99.99,,,-99.99,,2013-03-09 15:02:00,
2013-03-09 10:12:00,49.0,-99.9,30.29,NNE,19,9.0,14.0,-999,-99.99,,,-99.99,,2013-03-09 15:12:00,
2013-03-09 10:22:00,49.0,-99.9,30.30,NNE,19,12.0,15.0,-999,-99.99,,,-99.99,,2013-03-09 15:22:00,
2013-03-09 10:32:00,50.0,-99.9,30.30,NNE,19,11.0,13.0,-999,-99.99,,,-99.99,,2013-03-09 15:32:00,
2013-03-09 10:42:00,51.0,-99.9,30.30,North,6,8.0,12.0,-999,-99.99,,,-99.99,,2013-03-09 15:42:00,
2013-03-09 10:52:00,51.0,-99.9,30.31,North,357,7.0,12.0,-999,-99.99,,,-99.99,,2013-03-09 15:52:00,
2013-03-09 11:02:00,51.0,-99.9,30.30,North,3,7.0,11.0,-999,-99.99,,,-99.99,,2013-03-09 16:02:00,
2013-03-09 11:12:00,52.0,-99.9,30.31,North,2,5.0,10.0,-999,-99.99,,,-99.99,,2013-03-09 16:12:00,
2013-03-09 11:22:00,51.0,-99.9,30.31,North,5,7.0,9.0,-999,-99.99,,,-99.99,,2013-03-09 16:22:00,
2013-03-09 11:32:00,52.0,-99.9,30.31,North,7,6.0,9.0,-999,-99.99,,,-99.99,,2013-03-09 16:32:00,
2013-03-09 11:42:00,52.0,-99.9,30.31,North,7,6.0,9.0,-999,-99.99,,,-99.99,,2013-03-09 16:42:00,
2013-03-09 11:52:00,52.0,-99.9,30.31,NNE,13,6.0,8.0,-999,-99.99,,,-99.99,,2013-03-09 16:52:00,
2013-03-09 12:01:00,53.0,-99.9,30.31,NNE,13,3.0,6.0,-999,-99.99,,,-99.99,,2013-03-09 17:01:00,
2013-03-09 12:11:00,52.0,-99.9,30.30,SSE,161,3.0,4.0,-999,-99.99,,,-99.99,,2013-03-09 17:11:00,
2013-03-09 12:22:00,51.0,-99.9,30.30,SSE,168,7.0,9.0,-999,-99.99,,,-99.99,,2013-03-09 17:22:00,
2013-03-09 12:32:00,52.0,-99.9,30.30,SE,134,7.0,9.0,-999,-99.99,,,-99.99,,2013-03-09 17:32:00,
2013-03-09 12:42:00,51.0,-99.9,30.29,SE,143,8.0,10.0,-999,-99.99,,,-99.99,,2013-03-09 17:42:00,
2013-03-09 12:52:00,51.0,-99.9,30.29,SE,131,11.0,12.0,-999,-99.99,,,-99.99,,2013-03-09 17:52:00,
2013-03-09 13:02:00,51.0,-99.9,30.29,SE,133,11.0,12.0,-999,-99.99,,,-99.99,,2013-03-09 18:02:00,
2013-03-09 13:11:00,51.0,-99.9,30.29,SE,129,10.0,11.0,-999,-99.99,,,-99.99,,2013-03-09 18:11:00,
2013-03-09 13:22:00,50.0,-99.9,30.29,SE,124,11.0,12.0,-999,-99.99,,,-99.99,,2013-03-09 18:22:00,
2013-03-09 13:32:00,50.0,-99.9,30.28,SE,126,10.0,11.0,-999,-99.99,,,-99.99,,2013-03-09 18:32:00,
2013-03-09 13:42:00,50.0,-99.9,30.28,ESE,122,11.0,12.0,-999,-99.99,,,-99.99,,2013-03-09 18:42:00,
2013-03-09 13:52:00,50.0,-99.9,30.27,ESE,123,11.0,12.0,-999,-99.99,,,-99.99,,2013-03-09 18:52:00,
2013-03-09 14:02:00,51.0,-99.9,30.27,SE,127,12.0,13.0,-999,-99.99,,,-99.99,,2013-03-09 19:02:00,
2013-03-09 14:12:00,51.0,-99.9,30.27,ESE,119,12.0,14.0,-999,-99.99,,,-99.99,,2013-03-09 19:12:00,
2013-03-09 14:22:00,51.0,-99.9,30.26,ESE,117,12.0,14.0,-999,-99.99,,,-99.99,,2013-03-09 19:22:00,
2013-03-09 14:32:00,51.0,-99.9,30.26,ESE,123,13.0,14.0,-999,-99.99,,,-99.99,,2013-03-09 19:32:00,
2013-03-09 14:42:00,51.0,-99.9,30.25,ESE,122,13.0,14.0,-999,-99.99,,,-99.99,,2013-03-09 19:42:00,
2013-03-09 14:52:00,51.0,-99.9,30.25,SE,124,11.0,12.0,-999,-99.99,,,-99.99,,2013-03-09 19:52:00,
2013-03-09 15:02:00,51.0,-99.9,30.25,ESE,120,11.0,12.0,-999,-99.99,,,-99.99,,2013-03-09 20:02:00,
2013-03-09 15:12:00,51.0,-99.9,30.24,SE,126,11.0,13.0,-999,-99.99,,,-99.99,,2013-03-09 20:12:00,
2013-03-09 15:22:00,51.0,-99.9,30.24,ESE,119,12.0,13.0,-999,-99.99,,,-99.99,,2013-03-09 20:22:00,
2013-03-09 15:32:00,51.0,-99.9,30.24,ESE,117,12.0,13.0,-999,-99.99,,,-99.99,,2013-03-09 20:32:00,
2013-03-09 15:42:00,52.0,-99.9,30.24,SE,126,12.0,14.0,-999,-99.99,,,-99.99,,2013-03-09 20:42:00,
2013-03-09 15:52:00,51.0,-99.9,30.24,ESE,118,13.0,14.0,-999,-99.99,,,-99.99,,2013-03-09 20:52:00,
2013-03-09 16:02:00,52.0,-99.9,30.24,ESE,117,12.0,15.0,-999,-99.99,,,-99.99,,2013-03-09 21:02:00,
2013-03-09 16:12:00,52.0,-99.9,30.24,ESE,120,12.0,13.0,-999,-99.99,,,-99.99,,2013-03-09 21:12:00,
2013-03-09 16:22:00,52.0,-99.9,30.23,SE,141,9.0,10.0,-999,-99.99,,,-99.99,,2013-03-09 21:22:00,
2013-03-09 16:32:00,52.0,-99.9,30.24,SE,139,9.0,11.0,-999,-99.99,,,-99.99,,2013-03-09 21:32:00,
2013-03-09 16:42:00,52.0,-99.9,30.23,SE,130,9.0,10.0,-999,-99.99,,,-99.99,,2013-03-09 21:42:00,
2013-03-09 16:52:00,52.0,-99.9,30.23,SE,129,10.0,11.0,-999,-99.99,,,-99.99,,2013-03-09 21:52:00,
2013-03-09 17:01:00,52.0,-99.9,30.23,ESE,123,10.0,12.0,-999,-99.99,,,-99.99,,2013-03-09 22:01:00,
2013-03-09 17:11:00,53.0,-99.9,30.23,SE,127,9.0,11.0,-999,-99.99,,,-99.99,,2013-03-09 22:11:00,
2013-03-09 17:22:00,53.0,-99.9,30.23,SE,139,9.0,11.0,-999,-99.99,,,-99.99,,2013-03-09 22:22:00,
2013-03-09 17:32:00,53.0,-99.9,30.24,SSE,149,7.0,8.0,-999,-99.99,,,-99.99,,2013-03-09 22:32:00,
2013-03-09 17:42:00,53.0,-99.9,30.24,SE,143,8.0,9.0,-999,-99.99,,,-99.99,,2013-03-09 22:42:00,
2013-03-09 17:52:00,53.0,-99.9,30.24,SE,137,7.0,9.0,-999,-99.99,,,-99.99,,2013-03-09 22:52:00,
2013-03-09 18:01:00,53.0,-99.9,30.24,SSE,149,5.0,7.0,-999,-99.99,,,-99.99,,2013-03-09 23:01:00,
2013-03-09 18:11:00,53.0,-99.9,30.24,SSE,157,5.0,7.0,-999,-99.99,,,-99.99,,2013-03-09 23:11:00,
2013-03-09 18:22:00,53.0,-99.9,30.24,South,173,7.0,8.0,-999,-99.99,,,-99.99,,2013-03-09 23:22:00,
2013-03-09 18:32:00,53.0,-99.9,30.25,SSE,163,6.0,7.0,-999,-99.99,,,-99.99,,2013-03-09 23:32:00,
2013-03-09 18:42:00,53.0,-99.9,30.25,SSE,162,5.0,6.0,-999,-99.99,,,-99.99,,2013-03-09 23:42:00,
2013-03-09 18:52:00,53.0,-99.9,30.25,SSE,167,5.0,6.0,-999,-99.99,,,-99.99,,2013-03-09 23:52:00,
2013-03-09 19:02:00,53.0,-99.9,30.25,South,184,4.0,5.0,-999,-99.99,,,-99.99,,2013-03-10 00:02:00,
2013-03-09 19:12:00,52.0,-99.9,30.25,South,183,4.0,5.0,-999,-99.99,,,-99.99,,2013-03-10 00:12:00,
2013-03-09 19:22:00,52.0,-99.9,30.25,South,181,3.0,4.0,-999,-99.99,,,-99.99,,2013-03-10 00:22:00,
2013-03-09 19:32:00,52.0,-99.9,30.26,South,184,2.0,3.0,-999,-99.99,,,-99.99,,2013-03-10 00:32:00,
2013-03-09 19:43:00,52.0,-99.9,30.26,South,185,2.0,3.0,-999,-99.99,,,-99.99,,2013-03-10 00:43:00,
2013-03-09 19:52:00,52.0,-99.9,30.26,South,173,2.0,2.0,-999,-99.99,,,-99.99,,2013-03-10 00:52:00,
2013-03-09 20:01:00,51.0,-99.9,30.26,SSE,161,1.0,2.0,-999,-99.99,,,-99.99,,2013-03-10 01:01:00,
2013-03-09 20:11:00,51.0,-99.9,30.26,South,169,1.0,2.0,-999,-99.99,,,-99.99,,2013-03-10 01:11:00,
2013-03-09 20:22:00,51.0,-99.9,30.26,SSE,153,1.0,1.0,-999,-99.99,,,-99.99,,2013-03-10 01:22:00,
2013-03-09 20:32:00,51.0,-99.9,30.26,South,173,1.0,1.0,-999,-99.99,,,-99.99,,2013-03-10 01:32:00,
2013-03-09 20:42:00,51.0,-99.9,30.26,SSE,156,1.0,1.0,-999,-99.99,,,-99.99,,2013-03-10 01:42:00,
2013-03-09 20:52:00,51.0,-99.9,30.26,South,186,1.0,2.0,-999,-99.99,,,-99.99,,2013-03-10 01:52:00,
2013-03-09 21:01:00,51.0,-99.9,30.26,South,182,2.0,2.0,-999,-99.99,,,-99.99,,2013-03-10 02:01:00,
2013-03-09 21:11:00,51.0,-99.9,30.27,SSW,212,2.0,3.0,-999,-99.99,,,-99.99,,2013-03-10 02:11:00,
2013-03-09 21:22:00,51.0,-99.9,30.27,SSW,208,3.0,4.0,-999,-99.99,,,-99.99,,2013-03-10 02:22:00,
2013-03-09 21:32:00,51.0,-99.9,30.27,SSW,208,1.0,2.0,-999,-99.99,,,-99.99,,2013-03-10 02:32:00,
2013-03-09 21:42:00,51.0,-99.9,30.27,South,170,1.0,2.0,-999,-99.99,,,-99.99,,2013-03-10 02:42:00,
2013-03-09 21:52:00,51.0,-99.9,30.27,SSE,152,1.0,2.0,-999,-99.99,,,-99.99,,2013-03-10 02:52:00,
2013-03-09 22:02:00,51.0,-99.9,30.27,SSW,201,2.0,2.0,-999,-99.99,,,-99.99,,2013-03-10 03:02:00,
2013-03-09 22:12:00,52.0,-99.9,30.27,SSW,198,2.0,2.0,-999,-99.99,,,-99.99,,2013-03-10 03:12:00,
2013-03-09 22:22:00,52.0,-99.9,30.27,SSW,208,2.0,3.0,-999,-99.99,,,-99.99,,2013-03-10 03:22:00,
2013-03-09 22:32:00,52.0,-99.9,30.27,SW,225,2.0,3.0,-999,-99.99,,,-99.99,,2013-03-10 03:32:00,
2013-03-09 22:42:00,52.0,-99.9,30.27,WNW,290,1.0,2.0,-999,-99.99,,,-99.99,,2013-03-10 03:42:00,
2013-03-09 22:52:00,52.0,-99.9,30.27,NW,317,2.0,2.0,-999,-99.99,,,-99.99,,2013-03-10 03:52:00,
2013-03-09 23:01:00,52.0,-99.9,30.27,NNW,331,2.0,2.0,-999,-99.99,,,-99.99,,2013-03-10 04:01:00,
2013-03-09 23:11:00,51.0,-99.9,30.27,NW,318,2.0,3.0,-999,-99.99,,,-99.99,,2013-03-10 04:11:00,
2013-03-09 23:22:00,50.0,-99.9,30.27,NW,321,3.0,3.0,-999,-99.99,,,-99.99,,2013-03-10 04:22:00,
2013-03-09 23:32:00,50.0,-99.9,30.27,NNW,341,2.0,3.0,-999,-99.99,,,-99.99,,2013-03-10 04:32:00,
2013-03-09 23:42:00,49.0,-99.9,30.27,NW,323,2.0,3.0,-999,-99.99,,,-99.99,,2013-03-10 04:42:00,
2013-03-09 23:52:00,49.0,-99.9,30.26,NNW,337,2.0,3.0,-999,-99.99,,,-99.99,,2013-03-10 04:52:00,